Amateur Radio Satellites - All Passes

Search period start: 18 May 2013 19:22
Search period end: 19 May 2013 19:22
Location: Ottawa, 45.4170°N, 75.7000°W

Satellite Date Start Highest point End Downlink Frequencies (MHz)
Time Altitude Azimuth
Sapphire 18 May 19:25:46 19:29:11 17° 255° (WSW) 19:32:36 437.095 MHz 1200 baud AX-25 AFSK
Hamsat 18 May 19:39:30 19:43:36 51° 261° (W) 19:47:45 145.90 MHz
JAS-2 18 May 19:57:27 20:02:20 18° 51° (NE) 20:07:14 435.800 - 435.900 CW/SSB, 435.910 FM
RS-15 18 May 19:58:37 20:09:52 45° 325° (NW) 20:20:41 29.354 - 29.394 USB, Beacon 29.352 USB
SO-67 18 May 19:59:32 20:03:06 86° 258° (WSW) 20:06:43 435.3500 MHz FM
SO-50 18 May 20:00:55 20:04:20 21° 248° (WSW) 20:07:42 436.795 FM
UOSAT-12 18 May 20:08:32 20:12:06 22° 37° (NE) 20:15:39 437.025 FM, 437.400 FM
HO-68 18 May 20:30:53 20:37:19 38° 61° (ENE) 20:43:47 435.675 MHz FM
JAS-1B 18 May 21:00:58 21:09:45 42° 263° (W) 21:17:30 435.800 - 435.900 CW/SSB
STRAND 1 18 May 21:02:09 21:05:52 21° 299° (WNW) 21:09:36 ?
Oscar 11 18 May 21:25:55 21:29:54 38° 70° (ENE) 21:33:55 145.825 FM, Beacon 2401.500 USB
JAS-2 18 May 21:38:25 21:46:00 70° 71° (ENE) 21:53:51 435.800 - 435.900 CW/SSB, 435.910 FM
AO-40 18 May 21:43:42 03:09:09 43° 179° (S) 09:10:09 Beacon 2401.320
UOSAT-12 18 May 21:48:09 21:52:45 71° 237° (WSW) 21:57:19 437.025 FM, 437.400 FM
OPAL 18 May 21:55:21 22:00:25 53° 68° (ENE) 22:05:27 ?
RS-15 18 May 22:16:31 22:26:05 28° 358° (N) 22:35:20 29.354 - 29.394 USB, Beacon 29.352 USB
HO-68 18 May 22:18:02 22:24:52 48° 260° (W) 22:31:46 435.675 MHz FM
KITSAT 1 18 May 22:59:48 23:05:53 24° 104° (ESE) 23:11:59 435.175 FM
Oscar 11 18 May 23:02:56 23:06:16 22° 267° (W) 23:09:39 145.825 FM, Beacon 2401.500 USB
JAS-2 18 May 23:25:13 23:31:34 28° 270° (W) 23:38:08 435.800 - 435.900 CW/SSB, 435.910 FM
OPAL 18 May 23:35:36 23:39:35 22° 265° (W) 23:43:36 ?
RS-15 19 May 00:31:53 00:42:27 42° 32° (NNE) 00:52:38 29.354 - 29.394 USB, Beacon 29.352 USB
KITSAT 1 19 May 00:52:18 01:00:23 82° 304° (NW) 01:08:33 435.175 FM
Oscar 10/S400 19 May 01:28:45 06:19:25 28° 88° (E) 08:34:28 145.825 - 145.975 CW/USB, Beacon 145.810 USB
MaSat-1 19 May 01:29:01 01:32:18 14° 101° (E) 01:35:22 437.345 MHz
AO-27 19 May 01:47:18 01:49:59 14° 88° (E) 01:52:39 436.795 MHz FM
Oscar 16 19 May 01:47:36 01:51:18 19° 91° (E) 01:54:58 437.025 USB, Beacon 2401.1428
ITAMSAT 1 19 May 01:54:38 01:57:50 16° 90° (E) 02:01:00 435.822 SSB
Uribyol 2 19 May 02:35:31 02:40:25 39° 97° (E) 02:45:17 436.500 FM
RS-15 19 May 02:44:45 02:55:54 78° 239° (WSW) 03:06:44 29.354 - 29.394 USB, Beacon 29.352 USB
Oscar 19 19 May 02:47:20 02:52:27 56° 101° (E) 02:57:30 437.125 CW, 437.150 USB
KITSAT 1 19 May 02:50:19 02:57:03 28° 329° (NNW) 03:03:51 435.175 FM
MaSat-1 19 May 03:06:46 03:13:56 72° 115° (ESE) 03:19:50 437.345 MHz
Uosat F 19 May 03:15:13 03:17:34 13° 89° (E) 03:19:54 435.120 FM
AO-Echo 19 May 03:24:29 03:28:50 35° 97° (E) 03:33:12 ?
AO-27 19 May 03:24:54 03:30:08 81° 286° (WNW) 03:35:22 436.795 MHz FM
Oscar 16 19 May 03:25:57 03:31:04 59° 289° (WNW) 03:36:08 437.025 USB, Beacon 2401.1428
Gurwin Techsat 1B 19 May 03:26:59 03:30:00 15° 88° (E) 03:33:00 435.225 FM
ITAMSAT 1 19 May 03:32:39 03:37:52 71° 287° (WNW) 03:43:04 435.822 SSB
Uribyol 2 19 May 04:15:15 04:19:48 31° 295° (WNW) 04:24:19 436.500 FM
Oscar 19 19 May 04:27:31 04:31:24 22° 299° (WNW) 04:35:17 437.125 CW, 437.150 USB
TMSAT-1 19 May 04:46:00 04:51:11 51° 99° (E) 04:56:20 436.925 FM
KITSAT 1 19 May 04:50:45 04:55:43 17° 358° (N) 05:00:41 435.175 FM
MaSat-1 19 May 04:50:53 04:56:30 27° 310° (NW) 05:01:17 437.345 MHz
Uosat F 19 May 04:51:57 04:57:00 81° 286° (WNW) 05:02:01 435.120 FM
ISS 19 May 04:58:22 05:01:37 53° 145° (SE) 05:04:54 145.800 FM
RS-15 19 May 04:59:20 05:06:13 19° 262° (W) 05:13:04 29.354 - 29.394 USB, Beacon 29.352 USB
AO-Echo 19 May 05:03:33 05:07:32 28° 294° (WNW) 05:11:33 ?
STRAND 1 19 May 05:03:44 05:06:49 16° 58° (ENE) 05:09:54 ?
Gurwin Techsat 1B 19 May 05:05:15 05:10:35 77° 286° (WNW) 05:15:53 435.225 FM
AO-27 19 May 05:06:32 05:08:51 13° 305° (NW) 05:11:10 436.795 MHz FM
ITAMSAT 1 19 May 05:14:47 05:16:28 12° 306° (NW) 05:18:08 435.822 SSB
AO-7 19 May 05:21:35 05:29:13 37° 97° (E) 05:36:46 29.400 - 29.500 MHz
Saudisat 1A 19 May 06:19:00 06:22:23 21° 112° (ESE) 06:25:48 436.775 MHz
TMSAT-1 19 May 06:26:35 06:30:48 25° 298° (WNW) 06:35:01 436.925 FM
Uosat F 19 May 06:32:59 06:35:00 12° 304° (NW) 06:37:02 435.120 FM
ISS 19 May 06:35:19 06:38:27 37° 344° (NNW) 06:41:37 145.800 FM
STRAND 1 19 May 06:40:19 06:45:24 77° 256° (WSW) 06:50:32 ?
Gurwin Techsat 1B 19 May 06:47:28 06:49:41 13° 305° (NW) 06:51:55 435.225 FM
KITSAT 1 19 May 06:47:58 06:54:30 26° 28° (NNE) 07:01:02 435.175 FM
AO-7 19 May 07:14:12 07:22:17 56° 297° (WNW) 07:30:22 29.400 - 29.500 MHz
Hamsat 19 May 07:24:09 07:27:44 25° 94° (E) 07:31:19 145.90 MHz
PCSat 19 May 07:53:13 07:57:36 26° 109° (ESE) 08:02:01 145.825 MHz
Saudisat 1A 19 May 07:57:13 08:01:43 55° 310° (NW) 08:06:17 436.775 MHz
ISS 19 May 08:12:49 08:15:46 27° 4° (N) 08:18:43 145.800 FM
Sapphire 19 May 08:25:04 08:30:10 44° 114° (ESE) 08:35:19 437.095 MHz 1200 baud AX-25 AFSK
KITSAT 1 19 May 08:43:16 08:51:26 72° 53° (NE) 08:59:32 435.175 FM
JAS-1B 19 May 08:44:52 08:51:07 56° 100° (E) 08:56:43 435.800 - 435.900 CW/SSB
SO-67 19 May 08:57:39 09:01:15 87° 285° (WNW) 09:04:50 435.3500 MHz FM
Hamsat 19 May 08:59:57 09:03:52 34° 291° (WNW) 09:07:48 145.90 MHz
AO-7 19 May 09:08:54 09:13:20 16° 319° (NW) 09:17:46 29.400 - 29.500 MHz
PCSat 19 May 09:35:26 09:40:43 53° 308° (NW) 09:46:03 145.825 MHz
Saudisat 1A 19 May 09:40:05 09:42:27 14° 332° (NNW) 09:44:48 436.775 MHz
HO-68 19 May 09:43:18 09:49:28 30° 95° (E) 09:55:36 435.675 MHz FM
ISS 19 May 09:49:36 09:52:56 58° 24° (NNE) 09:56:16 145.800 FM
OPAL 19 May 10:06:46 10:07:17 10° 88° (E) 10:07:48 ?
Sapphire 19 May 10:08:52 10:13:45 34° 314° (NW) 10:18:40 437.095 MHz 1200 baud AX-25 AFSK
SO-50 19 May 10:16:54 10:21:42 74° 123° (ESE) 10:26:25 436.795 FM
JAS-2 19 May 10:31:54 10:38:55 52° 97° (E) 10:45:06 435.800 - 435.900 CW/SSB, 435.910 FM
JAS-1B 19 May 10:36:16 10:41:18 25° 303° (WNW) 10:45:55 435.800 - 435.900 CW/SSB
KITSAT 1 19 May 10:39:30 10:46:10 29° 254° (WSW) 10:52:50 435.175 FM
Oscar 11 19 May 10:47:29 10:51:48 57° 101° (E) 10:56:06 145.825 FM, Beacon 2401.500 USB
PCSat 19 May 11:22:39 11:25:26 14° 330° (NNW) 11:28:14 145.825 MHz
ISS 19 May 11:26:39 11:29:29 25° 222° (SW) 11:32:18 145.800 FM
HO-68 19 May 11:30:32 11:37:32 58° 293° (WNW) 11:44:30 435.675 MHz FM
OPAL 19 May 11:41:55 11:46:59 82° 106° (ESE) 11:51:58 ?
MaSat-1 19 May 11:51:08 11:54:39 35° 53° (NE) 11:57:29 437.345 MHz
Sapphire 19 May 11:58:15 11:58:57 10° 337° (NNW) 11:59:39 437.095 MHz 1200 baud AX-25 AFSK
SO-50 19 May 11:59:08 12:02:49 22° 323° (NW) 12:06:28 436.795 FM
UOSAT-12 19 May 12:02:49 12:06:08 20° 112° (ESE) 12:09:29 437.025 FM, 437.400 FM
JAS-2 19 May 12:17:16 12:23:38 34° 299° (WNW) 12:29:23 435.800 - 435.900 CW/SSB, 435.910 FM
Uribyol 2 19 May 12:20:30 12:22:12 12° 54° (NE) 12:23:53 436.500 FM
Oscar 11 19 May 12:24:53 12:27:36 16° 298° (WNW) 12:30:20 145.825 FM, Beacon 2401.500 USB
Oscar 19 19 May 12:29:56 12:32:56 16° 58° (ENE) 12:35:57 437.125 CW, 437.150 USB
Saudisat 1A 19 May 13:05:45 13:06:21 10° 22° (NNE) 13:06:58 436.775 MHz
Oscar 16 19 May 13:06:28 13:11:09 35° 66° (ENE) 13:15:51 437.025 USB, Beacon 2401.1428
AO-27 19 May 13:07:05 13:11:24 28° 64° (ENE) 13:15:44 436.795 MHz FM
ITAMSAT 1 19 May 13:14:29 13:18:58 31° 65° (ENE) 13:23:29 435.822 SSB
HO-68 19 May 13:20:30 13:23:47 14° 314° (NW) 13:27:05 435.675 MHz FM
OPAL 19 May 13:22:18 13:25:14 16° 305° (NW) 13:28:08 ?
MaSat-1 19 May 13:34:48 13:36:06 12° 260° (W) 13:37:19 437.345 MHz
UOSAT-12 19 May 13:41:30 13:45:56 54° 311° (NW) 13:50:26 437.025 FM, 437.400 FM
Uribyol 2 19 May 13:55:37 14:00:46 72° 73° (ENE) 14:05:58 436.500 FM
Oscar 19 19 May 14:06:25 14:11:37 83° 256° (WSW) 14:16:52 437.125 CW, 437.150 USB
Uosat F 19 May 14:30:07 14:34:06 25° 63° (ENE) 14:38:06 435.120 FM
TMSAT-1 19 May 14:32:09 14:35:08 15° 57° (ENE) 14:38:07 436.925 FM
AO-7 19 May 14:34:57 14:39:39 17° 42° (NE) 14:44:21 29.400 - 29.500 MHz
AO-Echo 19 May 14:39:39 14:44:27 59° 72° (ENE) 14:49:09 ?
Saudisat 1A 19 May 14:43:14 14:47:27 35° 44° (NE) 14:51:34 436.775 MHz
AO-27 19 May 14:45:50 14:50:44 43° 262° (W) 14:55:41 436.795 MHz FM
Oscar 16 19 May 14:45:52 14:50:31 33° 264° (W) 14:55:12 437.025 USB, Beacon 2401.1428
Gurwin Techsat 1B 19 May 14:49:45 14:54:18 30° 65° (ENE) 14:58:53 435.225 FM
ITAMSAT 1 19 May 14:53:36 14:58:23 38° 263° (W) 15:03:12 435.822 SSB
PCSat 19 May 14:56:33 14:57:58 11° 24° (NNE) 14:59:21 145.825 MHz
RS-15 19 May 15:06:45 15:10:54 12° 93° (E) 15:15:00 29.354 - 29.394 USB, Beacon 29.352 USB
UOSAT-12 19 May 15:24:55 15:27:08 13° 332° (NNW) 15:29:22 437.025 FM, 437.400 FM
Sapphire 19 May 15:28:24 15:31:27 15° 31° (NNE) 15:34:30 437.095 MHz 1200 baud AX-25 AFSK
Uribyol 2 19 May 15:37:45 15:40:49 16° 271° (W) 15:43:54 436.500 FM
Oscar 19 19 May 15:50:24 15:51:46 11° 274° (W) 15:53:09 437.125 CW, 437.150 USB
Uosat F 19 May 16:07:51 16:12:39 46° 261° (W) 16:17:29 435.120 FM
TMSAT-1 19 May 16:09:03 16:14:21 87° 256° (WSW) 16:19:42 436.925 FM
AO-Echo 19 May 16:20:28 16:23:38 17° 269° (W) 16:26:45 ?
AO-7 19 May 16:22:43 16:30:47 60° 64° (ENE) 16:38:56 29.400 - 29.500 MHz
Saudisat 1A 19 May 16:23:01 16:27:08 34° 243° (WSW) 16:31:11 436.775 MHz
Gurwin Techsat 1B 19 May 16:29:10 16:34:09 41° 263° (W) 16:39:10 435.225 FM
PCSat 19 May 16:38:02 16:43:04 37° 48° (NE) 16:48:04 145.825 MHz
SO-50 19 May 17:07:14 17:10:48 22° 37° (NE) 17:14:19 436.795 FM
RS-15 19 May 17:09:04 17:20:42 59° 115° (ESE) 17:31:52 29.354 - 29.394 USB, Beacon 29.352 USB
Sapphire 19 May 17:10:42 17:16:05 58° 54° (NE) 17:21:26 437.095 MHz 1200 baud AX-25 AFSK
JAS-1B 19 May 17:43:34 17:48:45 18° 52° (NE) 17:53:32 435.800 - 435.900 CW/SSB
TMSAT-1 19 May 17:53:12 17:55:04 12° 274° (W) 17:56:57 436.925 FM
AO-7 19 May 18:16:40 18:23:59 34° 264° (W) 18:31:24 29.400 - 29.500 MHz
Hamsat 19 May 18:20:47 18:24:09 24° 66° (ENE) 18:27:33 145.90 MHz
PCSat 19 May 18:21:30 18:26:33 40° 247° (WSW) 18:31:33 145.825 MHz
SO-50 19 May 18:47:21 18:51:53 68° 237° (WSW) 18:56:20 436.795 FM
STRAND 1 19 May 18:49:10 18:53:42 30° 96° (E) 18:58:12 ?
UOSAT-12 19 May 18:51:06 18:52:01 11° 23° (NNE) 18:52:55 437.025 FM, 437.400 FM
Sapphire 19 May 18:54:54 18:59:06 23° 252° (WSW) 19:03:17 437.095 MHz 1200 baud AX-25 AFSK

Developed and maintained by Chris Peat, Heavens-Above GmbH. Please read the updated FAQ before sending e-mail. Imprint. DLR
